Location: Mexico
(19.4000°N, 99.1500°W)
Time: 00:47:11
(UTC-06:00)

ISS - Pass Details

Date: 22 July 2017
Orbit: 400 x 408 km, 51.6° (Epoch: 21 July)

Event Time Altitude Azimuth Distance (km) Brightness Sun altitude
Rises 20:40:07 0° 236° (WSW) 2,297 0.4 -18.6°
Reaches altitude 10° 20:42:20 10° 248° (WSW) 1,440 -0.6 -19.1°
Maximum altitude 20:45:14 30° 311° (NW) 746 -1.8 -19.6°
Drops below altitude 10° 20:48:07 10° 15° (NNE) 1,441 -0.9 -20.2°
Sets 20:50:21 0° 27° (NNE) 2,299 0.1 -20.7°
